Hourly Weather Roundup
Issued by NWS Central Illinois

Home | Current Version | Previous Version | Text Only | Print | Product List | Glossary On
Versions: 1 2 3 4 5 6 7 8 9 10 11 12 13 14 15 16 17 18 19 20 21 22 23 24 25 26 27 28 29 30 31 32 33 34 35 36 37 38 39 40 41 42 43 44 45 46 47 48 49 50
761
NZUS43 KILX 180510
HWRILX

Area Weather Roundup
National Weather Service Lincoln IL
1100 PM CST SAT FEB 17 2018

NOTE:  "FAIR" indicates few or no clouds below 12,000 feet, with
       no sigificant weather and/or obstructions to visibility.


CITY           SKY/WX    TMP DP  RH WIND       PRES   REMARKS
Bloomington    FAIR      23  20  88 SW7       30.19R WCI  15
Champaign      FAIR      29  26  89 W9        30.21R WCI  20
Danville       FAIR      29  25  87 W8        30.18R WCI  21
Decatur        FAIR      29  26  89 W5        30.23R WCI  24
Effingham      FAIR      33  33 100 W8        30.26R WCI  26
Flora          FAIR      35  33  94 W6        30.25R WCI  29
Galesburg      FAIR      21  21 100 SW3       30.20R
Jacksonville   CLEAR     27  25  94 S3        30.23R
Lacon          FAIR      20  17  89 CALM      30.19R
Lawrenceville  FAIR      32  31  96 W6        30.25R WCI  26
Litchfield     CLEAR     30  29  96 CALM      30.23S
$$


CITY           SKY/WX    TMP DP  RH WIND       PRES   REMARKS
Lincoln        FAIR      31  28  88 CALM      30.22R
Macomb         CLEAR     27  26  94 SW6       30.22S WCI  21
Mattoon        FAIR      30  28  92 W7        30.22R WCI  23
Mt Carmel AP   FAIR      32  32  99 W3        30.25R
Olney-Noble AP FAIR      33  32  94 SW3       30.25R
Paris AP       FAIR      31  29  90 W10       30.24R WCI  23
Peoria         FAIR      23  21  92 W5        30.21R WCI  17
Pontiac        FAIR      22  21  98 W7        30.18R WCI  13
Rantoul        FAIR      30  27  90 W7        30.20R WCI  23
Robinson       FAIR      30  30  99 NW7       30.24S WCI  24
Springfield    FAIR      25  24  96 S6        30.23R FOG     WCI  18
Taylorville    FAIR      30  30  99 CALM      30.24S FOG
$$

...REGIONAL REPORTS...


CITY           SKY/WX    TMP DP  RH WIND       PRES   REMARKS
Chicago O`Hare FAIR      27  22  81 W7        30.11R WCI  19
Kankakee       CLOUDY    29  24  83 W12       30.17R WCI  19
Moline         FAIR      16  14  92 SW3       30.18R
Mount Sterling CLEAR     26  25  96 SW6       30.21R WCI  19
Mount Vernon   FAIR      28  28 100 CALM      30.25S FOG
Pittsfield     CLEAR     28  27  93 CALM      30.24R
Quincy         CLEAR     30  25  81 SE5       30.21R WCI  25
Rockford       FAIR      24  20  84 W7        30.13F WCI  16
$$


CITY           SKY/WX    TMP DP  RH WIND       PRES   REMARKS
Burlington     CLEAR     28  25  88 SW6       30.19R WCI  22
Cedar Rapids   FAIR      20  17  88 SW3       30.15R FOG
Des Moines     CLEAR     26  22  84 S7        30.17R WCI  18
Kirksville     CLEAR     26  22  84 CALM      30.20R
Ottumwa        CLEAR     27  22  81 W5        30.18R WCI  22
St Louis       CLEAR     31  30  96 CALM      30.23S
$$


CITY           SKY/WX    TMP DP  RH WIND       PRES   REMARKS
Terre Haute    FAIR      33  30  88 NW9       30.23R WCI  25
Evansville     FAIR      36  35  96 CALM      30.25S
Indianapolis   MOCLDY    33  27  78 NW10      30.18R WCI  25
Lafayette      CLOUDY    30  26  85 W13       30.18R WCI  20
Madison        FAIR      23  19  85 SW3       30.08R
Milwaukee      FAIR      29  23  78 W13G28    30.07R WCI  19
$$






USA.gov is the U.S. government's official web portal to all federal, state and local government web resources and services.